Regional Weather Roundup
Issued by NWS

Home | Current Version | Previous Version | Graphics & Text | Print | Product List | Glossary Off
Versions: 1 2 3 4 5 6 7 8 9 10 11 12 13 14 15 16 17 18 19 20 21 22 23 24 25 26 27 28 29 30 31 32 33 34 35 36 37 38 39 40 41 42 43 44 45 46 47 48 49 50

384
ASUS43 KMPX 290610
RWRMN
WEATHER ROUNDUP FOR MINNESOTA
NATIONAL WEATHER SERVICE TWIN CITIES/CHANHASSEN MN
100 AM CDT THU JUN 29 2017


NOTE: "FAIR" INDICATES FEW OR NO CLOUDS BELOW 12,000 FEET WITH NO
SIGNIFICANT WEATHER AND/OR OBSTRUCTIONS TO VISIBILITY. N/A MEANS
CURRENT SKY AND/OR WEATHER CONDITIONS ARE NOT AVAILABLE.

MNZ060>063-068>070-290700-
   Twin Cities Metro

CITY           SKY/WX    TMP DP  RH WIND       PRES   REMARKS
TWIN CITIES    CLOUDY    70  59  68 W12       29.63R
6HR MIN TEMP:  70; 6HR MAX TEMP:  79;

ST PAUL        CLOUDY    69  61  75 W10       29.63R
CRYSTAL        CLOUDY    68  58  70 W12       29.62R
BLAINE         MOCLDY    70  61  73 W10       29.62R
LAKEVILLE      CLOUDY    66  61  82 W6        29.65R
EDEN PRAIRIE   CLOUDY    70  59  68 W12G18    29.63R
6HR MIN TEMP:  70; 6HR MAX TEMP:  80;

SOUTH ST PAUL  CLOUDY    69  59  69 W6        29.63R
LAKE ELMO      CLOUDY    68  61  77 W13G21    29.63R
$$
MNZ001>005-007-008-013>017-022>024-027-028-290700-
   Northwest Minnesota

CITY           SKY/WX    TMP DP  RH WIND       PRES   REMARKS
BEMIDJI        CLOUDY    60  59  97 NW7       29.67R
HALLOCK        FOG       55  55 100 NW5       29.72R VSB 1/4
ROSEAU           N/A     59  54  82 N5        29.71R
WARROAD        CLOUDY    57  54  88 NW5       29.71R
THIEF RVR FALL CLOUDY    59  58  96 N5        29.72R
CROOKSTON      CLOUDY    61  59  94 NW7       29.72R
FOSSTON        CLOUDY    57  57 100 N5        29.70S
DETROIT LAKES  CLOUDY    59  57  94 N14       29.71S
MOORHEAD       CLOUDY    63  61  94 N7        29.71S
PARK RAPIDS    CLOUDY    61  58  90 NW12      29.66S
MAHNOMEN       CLOUDY    59  58  97 NW5       29.69F
$$
MNZ006-009>011-018-025>026-290700-
   North Central Minnesota

CITY           SKY/WX    TMP DP  RH WIND       PRES   REMARKS
BAUDETTE       CLOUDY    60  60 100 CALM      29.68F
FLAG ISLAND    CLOUDY    61  59  94 N6        29.69R
INTL FALLS     CLOUDY    61  58  90 N7        29.65R
6HR MIN TEMP:  60; 6HR MAX TEMP:  61; 6HR PCP:  0.12;

WASKISH        DRIZZLE   61  59  94 NW8       29.68R
BIG FORK       LGT RAIN  59  57  94 N6        29.63R
LONGVILLE      CLOUDY    61  57  88 N5        29.63S
GRAND RAPIDS   LGT RAIN  59  58  96 NW7       29.63R
CRANE LAKE     CLOUDY    57  57 100 N3        29.63S
ORR            DRIZZLE   57  55  94 CALM      29.59S
COOK           DRIZZLE   57  57 100 CALM      29.61S
WALKER         CLOUDY    60  59  96 NW7       29.65S
$$
MNZ012-019>021-037-290700-
   Northeast Minnesota

CITY           SKY/WX    TMP DP  RH WIND       PRES   REMARKS
DULUTH         LGT RAIN  55  55 100 SW8       29.55R FOG
6HR MIN TEMP:  55; 6HR MAX TEMP:  59; 6HR PCP:  0.78;

ELY            DRIZZLE   57  57 100 N3        29.58S
HIBBING        LGT RAIN  58  58 100 N8        29.58S
EVELETH        LGT RAIN  60  57  90 N5        29.59R
DULUTH HARBOR  RAIN      52  50  93 CALM      29.56R
TWO HARBORS    LGT RAIN  61  55  82 NE7       29.51S
SILVER BAY     DRIZZLE   57  57 100 NE9       29.52F
GRAND MARAIS     N/A     53  52  96 E13G20    29.56S
G MARAIS ARPRT RAIN      55  54  94 NE13      29.59F
$$
MNZ029>031-032-039>041-046>048-054>057-064-290700-
   West Central Minnesota

CITY           SKY/WX    TMP DP  RH WIND       PRES   REMARKS
FERGUS FALLS   CLOUDY    63  63 100 N9        29.68S
WHEATON        CLEAR     61  59  94 CALM      29.72S
MORRIS         CLEAR     63  61  94 NW7       29.69S
ALEXANDRIA     CLOUDY    63  59  87 NW9       29.70S
ELBOW LAKE     CLOUDY    62  60  92 NW9G17    29.71R
WADENA         CLOUDY    61  57  88 NW9       29.67S
GLENWOOD       PTCLDY    63  59  88 NW9       29.69S
APPLETON       CLEAR     63  59  88 N5        29.68F
BENSON         MOCLDY    63  59  88 N6        29.71R
ORTONVILLE     CLEAR     63  59  88 N6        29.69F
MADISON        CLEAR     64  61  88 NW3       29.70S
WILLMAR        FAIR      64  61  88 NW10      29.69S
$$
MNZ033>034-036-042>043-049>051-058-059-290700-
   Central Minnesota

CITY           SKY/WX    TMP DP  RH WIND       PRES   REMARKS
ST CLOUD       CLOUDY    65  61  87 NW8       29.64R
6HR MIN TEMP:  65; 6HR MAX TEMP:  74;

SAUK CENTRE    CLOUDY    63  59  86 NW7       29.68R
PAYNESVILLE    PTCLDY    62  62 100 W6        29.67S
AITKIN         CLOUDY    59  57  94 W5        29.60S
PINE RIVER     CLOUDY    61  61 100 MISG      29.68R
BRAINERD       CLOUDY    61  60  97 NW9       29.63S FOG
STAPLES        CLOUDY    61  57  88 NW10      29.66S
LONG PRAIRIE   CLOUDY    61  57  88 W10       29.68R
LITTLE FALLS   CLOUDY    63  59  88 NW7       29.65S
LITCHFIELD     PTCLDY    66  61  82 NW8       29.67S
BUFFALO        CLOUDY    67  59  74 W13G20    29.65S
MAPLE LAKE     CLOUDY    67  61  80 W8        29.65S
HUTCHINSON     CLOUDY    67  62  85 W7        29.67F
$$
MNZ037-044-045-052-053-290700-
   East Central Minnesota

CITY           SKY/WX    TMP DP  RH WIND       PRES   REMARKS
PRINCETON      CLOUDY    64  63  94 W7        29.63R
MORA           CLOUDY    63  59  88 NW9       29.62R
CAMBRIDGE      CLOUDY    64  59  82 W9        29.60R
RUSH CITY      CLOUDY    64  61  88 NW6       29.61R
MOOSE LAKE     CLOUDY    57  55  94 W3        29.56R FOG
HINCKLEY       CLOUDY    63  61  94 W7        29.59R
CLOQUET        RAIN      59  57  94 NW3       29.56S
MCGREGOR       CLOUDY    61  59  94 NW7       29.61R
$$
MNZ071>073-080-081-089-090-097-098-290700-
   Southwest Minnesota

CITY           SKY/WX    TMP DP  RH WIND       PRES   REMARKS
MONTEVIDEO     CLEAR     63  57  82 N5        29.70R
GRANITE FALLS  CLEAR     64  61  90 NW5       29.71S
CANBY          CLEAR     62  59  89 CALM      29.73R
MARSHALL       CLEAR     61  58  90 W7        29.72R
REDWOOD FALLS  CLEAR     64  59  83 W7        29.69R
OLIVIA         CLEAR     63  59  88 NW6       29.69R
PIPESTONE      CLEAR     66  61  82 CALM      29.75R
WINDOM         CLEAR     63  59  88 W5        29.72R
WORTHINGTON    CLEAR     64  61  90 CALM      29.74S
JACKSON        CLEAR     63  59  88 CALM      29.73S
TRACY          CLEAR     65  61  86 NW5       29.72S
SLAYTON        CLEAR     61  59  92 NW5       29.74R
$$
MNZ065>067-074>077-082>085-091>093-290700-
   South Central Minnesota

CITY           SKY/WX    TMP DP  RH WIND       PRES   REMARKS
MANKATO        CLEAR     67  61  81 NW7       29.68R
NEW ULM        CLEAR     66  61  82 NW9       29.68S
ST JAMES       CLEAR     64  61  88 W6        29.71R
FAIRMONT       CLEAR     66  63  90 NW7       29.71R
GLENCOE        CLOUDY    68  64  86 NW8       29.65F
FARIBAULT      CLEAR     66  61  82 W3        29.67R
OWATONNA       CLEAR     66  61  82 CALM      29.67S
WASECA         CLEAR     63  59  88 W3        29.69S
ALBERT LEA     CLEAR     66  61  82 CALM      29.68F
$$
MNZ078>079-086>088-094>096-290700-
   Southeast Minnesota

CITY           SKY/WX    TMP DP  RH WIND       PRES   REMARKS
ROCHESTER      CLEAR     65  65 100 SW10      29.67F
6HR MIN TEMP:  65; 6HR MAX TEMP:  76; 6HR PCP:  0.07;

RED WING       PTCLDY    68  61  77 NW3       29.62R
STANTON        CLEAR     66  60  81 W5        29.64R
DODGE CENTER   CLEAR     66  61  82 W7        29.67F
WINONA         MOCLDY    70  64  83 SW8       29.62F
AUSTIN         PTCLDY    64  63  94 CALM      29.68S FOG
PRESTON        CLOUDY    64  61  90 SW9       29.68S
$$
ABBREVIATIONS USED IN REMARKS
   TC - TEMPERATURES IN CELSIUS
  WCI - WIND CHILL INDEX
   HX - HEAT INDEX
  VSB - VISIBILITY
$$




USA.gov is the U.S. government's official web portal to all federal, state and local government web resources and services.